Terminal Aerodrome Forecast
Issued by NWS Pittsburgh, PA

Current Version | Previous Version | Graphics & Text | Print | Product List | Glossary On
Versions: 1 2 3 4 5 6 7 8 9 10 11 12 13 14 15 16 17 18 19 20 21 22 23 24 25 26 27 28 29 30 31 32
776
FTUS41 KPBZ 290804 AAA
TAFPIT
TAF AMD
KPIT 290804Z 2908/3012 23005KT P6SM -SHRA BKN005
     FM290900 25010KT P6SM VCSH BKN025
     FM291200 28012KT P6SM SCT100
     FM300300 20005KT P6SM SCT100=

USA.gov is the U.S. government's official web portal to all federal, state and local government web resources and services.